Home   Weather   Campeche   Past weeks
Flag for Mexico

Past Weather in Campeche, Campeche, Mexico — Yesterday and Last 2 Weeks

Now
90 °F

Scattered clouds.


Feels Like: 100 °F
Forecast: 94 / 79 °F
Wind: 14 mph from East

Location: Campeche

Current Time: Jul 16, 2019 at 1:52:59 pm

Latest Report: Jul 16, 2019 at 12:41 pm


Visibility: 7 mi

Pressure: 29.96 "Hg

Humidity: 63%

Dew Point: 75 °F

Location of CampecheLocation

Past Weather in Campeche — Graph

°F

Campeche Temperature Yesterday

Maximum temperature yesterday: 95 °F (at 3:44 pm)
Minimum temperature yesterday: 75 °F (at 5:40 am)
Average temperature yesterday: 86 °F

High & Low Weather Summary for the Past Weeks

 TemperatureHumidityPressure
High97 °F (Jul 3, 5:44 pm)100% (Jul 2, 6:49 am)30.06 "Hg (Jul 2, 6:49 am)
Low70 °F (Jul 8, 5:40 am)41% (Jul 2, 5:45 pm)29.77 "Hg (Jul 12, 6:46 pm)
Average83 °F76%29.93 "Hg
* Reported Jul 1 11:43 am — Jul 16 11:42 am, Campeche. Weather by CustomWeather, © 2019

Note: Actual official high and low records may vary slightly from our data, if they occured in-between our weather recording intervals... More about our weather records

Advertising

Campeche Weather History for the Previous 24 Hours

Scroll right to see more
 ConditionsComfort  
Time TempWeatherWind HumidityBarometerVisibility
11:42 am
Tue, Jul 16
90 °FScattered clouds.12 mph59%30.00 "Hg7 mi
10:44 am88 °FScattered clouds.14 mph66%30.00 "Hg7 mi
9:42 am84 °FScattered clouds.14 mph74%29.96 "Hg7 mi
8:40 am81 °FScattered clouds.12 mph84%29.99 "Hg7 mi
7:40 am77 °FScattered clouds.8 mph89%29.98 "Hg7 mi
6:44 am75 °FScattered clouds.6 mph89%29.93 "Hg7 mi
5:40 am75 °FClear.6 mph89%29.94 "Hg7 mi
10:44 pm
Mon, Jul 15
81 °FPassing clouds.9 mph74%29.96 "Hg7 mi
9:45 pm84 °FPassing clouds.9 mph66%29.95 "Hg7 mi
8:45 pm82 °FPartly cloudy.8 mph74%29.91 "Hg7 mi
7:45 pm86 °FPartly cloudy.6 mph75%29.89 "Hg7 mi
6:45 pm88 °FScattered clouds.12 mph75%29.84 "Hg7 mi
5:41 pm95 °FScattered clouds.9 mph44%29.85 "Hg7 mi
4:44 pm95 °FScattered clouds.8 mph41%29.86 "Hg7 mi
3:44 pm95 °FScattered clouds.12 mph44%29.85 "Hg7 mi
2:42 pm93 °FScattered clouds.12 mph44%29.91 "Hg7 mi
1:45 pm93 °FScattered clouds.14 mph47%29.93 "Hg7 mi
Weather by CustomWeather, © 2019

See weather overview

LIVE PARTIAL LUNAR ECLIPSE – Watch the eclipse as it happens